Location: Sternwarte ZA, Rosenfeld-Brittheim
(48.2889°N, 8.6789°E)
Time: 19:47:04
(UTC+01:00)

ISS - Pass Details

Date: 12 December 2017
Orbit: 402 x 407 km, 51.6° (Epoch: 11 December)

Event Time Altitude Azimuth Distance (km) Brightness Sun altitude
Rises 17:17:11 0° 289° (WNW) 2,332 0.8 -7.4°
Reaches altitude 10° 17:19:18 10° 293° (WNW) 1,470 -0.4 -7.8°
Maximum altitude 17:22:33 58° 14° (NNE) 479 -3.7 -8.2°
Drops below altitude 10° 17:25:48 10° 95° (E) 1,464 -1.5 -8.7°
Enters shadow 17:25:59 - 95° (E) 1,540 -1.4 -8.8°
